TimeCST,TemperatureF,Dew PointF,Humidity,Sea Level PressureIn,VisibilityMPH,Wind Direction,Wind SpeedMPH,Gust SpeedMPH,PrecipitationIn,Events,Conditions,WindDirDegrees,DateUTC
12:15 AM,17.6,15.8,93,29.90,10.0,SE,10.4,-,N/A,,Overcast,130,2013-01-18 06:15:00
12:35 AM,17.6,17.6,100,29.88,10.0,SE,9.2,-,N/A,,Overcast,140,2013-01-18 06:35:00
12:55 AM,19.4,17.6,93,29.85,10.0,SE,11.5,-,N/A,,Mostly Cloudy,140,2013-01-18 06:55:00
1:15 AM,19.4,19.4,100,29.84,10.0,SE,10.4,-,N/A,,Partly Cloudy,140,2013-01-18 07:15:00
1:35 AM,21.2,19.4,93,29.84,10.0,SSE,10.4,-,N/A,,Clear,150,2013-01-18 07:35:00
1:55 AM,21.2,19.4,93,29.81,10.0,SE,11.5,-,N/A,,Clear,140,2013-01-18 07:55:00
2:15 AM,21.2,19.4,93,29.79,10.0,SE,10.4,-,N/A,,Clear,140,2013-01-18 08:15:00
2:35 AM,23.0,21.2,93,29.79,10.0,SSE,9.2,-,N/A,,Clear,150,2013-01-18 08:35:00
2:55 AM,23.0,23.0,100,29.77,10.0,SSE,9.2,-,N/A,,Clear,160,2013-01-18 08:55:00
3:15 AM,24.8,23.0,93,29.76,10.0,SE,6.9,-,N/A,,Clear,140,2013-01-18 09:15:00
3:35 AM,24.8,23.0,93,29.75,10.0,SSE,4.6,-,N/A,,Clear,150,2013-01-18 09:35:00
3:55 AM,24.8,23.0,93,29.75,10.0,SE,3.5,-,N/A,,Scattered Clouds,130,2013-01-18 09:55:00
4:15 AM,24.8,23.0,93,29.72,9.0,SE,6.9,-,N/A,,Partly Cloudy,130,2013-01-18 10:15:00
4:55 AM,24.8,24.8,100,29.72,10.0,South,3.5,-,N/A,,Mostly Cloudy,190,2013-01-18 10:55:00
5:15 AM,26.6,26.6,100,29.70,10.0,SSW,4.6,-,N/A,,Overcast,200,2013-01-18 11:15:00
5:35 AM,26.6,24.8,93,29.71,10.0,WSW,4.6,-,N/A,,Scattered Clouds,250,2013-01-18 11:35:00
5:55 AM,26.6,24.8,93,29.70,10.0,WSW,8.1,-,N/A,,Clear,250,2013-01-18 11:55:00
6:15 AM,24.8,23.0,93,29.70,10.0,West,8.1,-,N/A,,Clear,260,2013-01-18 12:15:00
6:35 AM,24.8,21.2,86,29.69,10.0,West,10.4,-,N/A,,Clear,260,2013-01-18 12:35:00
6:55 AM,24.8,21.2,86,29.69,10.0,WSW,9.2,-,N/A,,Clear,250,2013-01-18 12:55:00
7:15 AM,23.0,19.4,86,29.69,10.0,WSW,9.2,-,N/A,,Clear,250,2013-01-18 13:15:00
7:35 AM,26.6,23.0,86,29.69,10.0,West,15.0,-,N/A,,Clear,260,2013-01-18 13:35:00
7:55 AM,26.6,23.0,86,29.69,10.0,West,9.2,-,N/A,,Clear,270,2013-01-18 13:55:00
8:35 AM,24.8,21.2,86,29.70,10.0,WNW,6.9,-,N/A,,Clear,290,2013-01-18 14:35:00
8:55 AM,23.0,19.4,86,29.72,10.0,West,4.6,-,N/A,,Clear,280,2013-01-18 14:55:00
9:15 AM,24.8,23.0,93,29.72,10.0,West,5.8,-,N/A,,Clear,270,2013-01-18 15:15:00
9:35 AM,26.6,23.0,86,29.73,10.0,West,8.1,-,N/A,,Partly Cloudy,280,2013-01-18 15:35:00
10:15 AM,28.4,24.8,86,29.73,10.0,WNW,10.4,-,N/A,,Partly Cloudy,290,2013-01-18 16:15:00
10:35 AM,28.4,24.8,86,29.75,10.0,WNW,15.0,-,N/A,,Mostly Cloudy,300,2013-01-18 16:35:00
10:55 AM,28.4,24.8,86,29.75,10.0,WNW,16.1,-,N/A,,Scattered Clouds,300,2013-01-18 16:55:00
11:15 AM,28.4,24.8,86,29.75,10.0,WNW,16.1,-,N/A,,Partly Cloudy,300,2013-01-18 17:15:00
11:35 AM,28.4,24.8,86,29.74,10.0,WNW,11.5,-,N/A,,Partly Cloudy,290,2013-01-18 17:35:00
11:55 AM,28.4,24.8,86,29.75,10.0,WNW,12.7,-,N/A,,Mostly Cloudy,290,2013-01-18 17:55:00
12:15 PM,28.4,24.8,86,29.74,10.0,West,10.4,-,N/A,,Overcast,280,2013-01-18 18:15:00
12:35 PM,30.2,26.6,86,29.73,10.0,West,10.4,-,N/A,,Overcast,280,2013-01-18 18:35:00
12:55 PM,30.2,26.6,86,29.72,10.0,West,8.1,-,N/A,,Overcast,280,2013-01-18 18:55:00
1:15 PM,32.0,26.6,80,29.71,10.0,West,8.1,-,N/A,,Overcast,260,2013-01-18 19:15:00
1:35 PM,32.0,26.6,80,29.71,10.0,West,5.8,-,N/A,,Mostly Cloudy,260,2013-01-18 19:35:00
1:55 PM,32.0,26.6,80,29.70,10.0,West,6.9,-,N/A,,Partly Cloudy,260,2013-01-18 19:55:00
2:15 PM,32.0,26.6,80,29.69,10.0,SW,8.1,-,N/A,,Clear,220,2013-01-18 20:15:00
2:35 PM,33.8,28.4,81,29.69,10.0,WSW,8.1,-,N/A,,Clear,250,2013-01-18 20:35:00
2:55 PM,32.0,28.4,87,29.70,10.0,West,8.1,-,N/A,,Clear,260,2013-01-18 20:55:00
3:15 PM,32.0,28.4,87,29.69,10.0,West,5.8,-,N/A,,Partly Cloudy,260,2013-01-18 21:15:00
3:35 PM,32.0,28.4,87,29.69,10.0,WSW,6.9,-,N/A,,Mostly Cloudy,250,2013-01-18 21:35:00
3:55 PM,32.0,28.4,87,29.68,10.0,SW,8.1,-,N/A,,Overcast,230,2013-01-18 21:55:00
4:15 PM,33.8,30.2,87,29.68,10.0,SW,5.8,-,N/A,,Overcast,230,2013-01-18 22:15:00
4:35 PM,32.0,30.2,93,29.69,10.0,SW,4.6,-,N/A,,Overcast,220,2013-01-18 22:35:00
4:55 PM,32.0,30.2,93,29.68,10.0,SW,8.1,-,N/A,,Overcast,230,2013-01-18 22:55:00
5:15 PM,32.0,30.2,93,29.68,10.0,WSW,9.2,-,N/A,,Overcast,240,2013-01-18 23:15:00
5:35 PM,32.0,30.2,93,29.68,10.0,WSW,6.9,-,N/A,,Overcast,240,2013-01-18 23:35:00
5:55 PM,32.0,30.2,93,29.69,10.0,WSW,5.8,-,N/A,,Overcast,240,2013-01-18 23:55:00
6:15 PM,32.0,30.2,93,29.68,10.0,SW,9.2,-,N/A,,Overcast,230,2013-01-19 00:15:00
6:35 PM,32.0,30.2,93,29.68,10.0,WSW,9.2,-,N/A,,Scattered Clouds,240,2013-01-19 00:35:00
6:55 PM,32.0,30.2,93,29.68,10.0,WSW,9.2,-,N/A,,Clear,240,2013-01-19 00:55:00
7:15 PM,32.0,28.4,87,29.69,10.0,WSW,8.1,-,N/A,,Clear,250,2013-01-19 01:15:00
7:35 PM,32.0,30.2,93,29.68,10.0,WSW,8.1,-,N/A,,Clear,250,2013-01-19 01:35:00
7:55 PM,32.0,30.2,93,29.68,10.0,WSW,9.2,-,N/A,,Clear,250,2013-01-19 01:55:00
8:35 PM,32.0,28.4,87,29.68,10.0,West,8.1,-,N/A,,Partly Cloudy,270,2013-01-19 02:35:00
8:55 PM,32.0,28.4,87,29.67,10.0,WSW,9.2,-,N/A,,Clear,250,2013-01-19 02:55:00
9:15 PM,30.2,28.4,93,29.66,10.0,WSW,8.1,-,N/A,,Clear,240,2013-01-19 03:15:00
9:35 PM,32.0,28.4,87,29.66,10.0,WSW,9.2,-,N/A,,Clear,250,2013-01-19 03:35:00
9:55 PM,30.2,28.4,93,29.66,10.0,WSW,9.2,-,N/A,,Clear,240,2013-01-19 03:55:00
10:15 PM,30.2,28.4,93,29.65,10.0,SW,10.4,-,N/A,,Clear,230,2013-01-19 04:15:00
10:35 PM,30.2,28.4,93,29.66,10.0,SW,10.4,-,N/A,,Clear,230,2013-01-19 04:35:00
10:55 PM,32.0,28.4,87,29.65,10.0,WSW,11.5,-,N/A,,Partly Cloudy,240,2013-01-19 04:55:00
11:15 PM,32.0,28.4,87,29.65,10.0,WSW,13.8,-,N/A,,Mostly Cloudy,240,2013-01-19 05:15:00
11:35 PM,32.0,28.4,87,29.65,10.0,WSW,10.4,-,N/A,,Mostly Cloudy,250,2013-01-19 05:35:00
11:55 PM,32.0,28.4,87,29.64,10.0,SW,11.5,-,N/A,,Partly Cloudy,230,2013-01-19 05:55:00